GW2669 Weather Reports


Display with metric or nautical units.
time (UTC)temp
F
wind
direction
speed
MPH
gust
MPH
rain 1hr
in
rain 24hr
in
rain mn
in
humidity
%
barometer
mb
20260901043105 71 0 0.0 6.0 0.00 1.31 1.31 90 1015.7
20260901041605 70 227 4.0 8.0 0.00 1.31 1.31 90 1016.0
20260901040106 70 240 4.0 11.0 0.00 1.31 1.31 90 1015.9
20260901034609 69 240 5.0 10.0 0.00 1.31 1.31 90 1015.6
20260901033115 70 223 3.0 7.0 0.08 1.31 1.31 89 1015.4
20260901031557 70 248 3.0 9.0 0.52 1.31 1.31 89 1015.3
20260901030108 70 226 4.0 7.0 0.79 1.31 1.31 89 1015.1
20260901024610 68 219 0.0 15.0 0.97 1.31 1.31 88 1015.3
20260901023100 67 145 12.0 30.0 0.90 1.23 1.23 87 1015.7
20260901021608 69 269 2.0 39.0 0.56 0.78 0.78 86 1016.1
20260901020105 73 272 1.0 40.0 0.52 0.52 0.52 80 1015.2
20260901014609 76 268 11.0 17.0 0.34 0.34 0.34 71 1015.0
20260901013111 77 242 12.0 19.0 0.33 0.33 0.33 70 1014.4
20260901011605 79 168 20.0 39.0 0.19 0.19 0.19 62 1014.2
20260901010117 90 241 15.0 35.0 0.00 0.00 0.00 40 1013.9
20260901004618 92 115 14.0 21.0 0.00 0.00 0.00 37 1012.4
20260901003107 93 122 16.0 24.0 0.00 0.00 0.00 36 1012.3
20260901001606 92 119 15.0 25.0 0.00 0.00 0.00 38 1011.7
20260901000110 92 115 18.0 25.0 0.00 0.00 0.00 37 1011.2
20260831234557 93 100 16.0 23.0 0.00 0.00 0.00 37 1011.2
20260831233105 95 92 13.0 23.0 0.00 0.00 0.00 33 1011.7
20260831231609 95 111 13.0 20.0 0.00 0.00 0.00 32 1011.4
20260831230059 96 99 12.0 20.0 0.00 0.00 0.00 34 1011.3
20260831224606 96 99 11.0 21.0 0.00 0.00 0.00 32 1011.5
20260831223107 98 121 8.0 13.0 0.00 0.00 0.00 29 1011.5
20260831221611 99 102 7.0 12.0 0.00 0.00 0.00 26 1011.7
20260831220108 99 85 8.0 12.0 0.00 0.00 0.00 28 1011.8
20260831214605 98 43 5.0 16.0 0.00 0.00 0.00 26 1012.2
20260831213100 99 94 6.0 12.0 0.00 0.00 0.00 24 1012.3
20260831211555 99 42 4.0 14.0 0.00 0.00 0.00 24 1012.7
20260831210105 98 83 2.0 9.0 0.00 0.00 0.00 25 1013.0
20260831204600 99 12 7.0 13.0 0.00 0.00 0.00 24 1013.2
20260831203107 100 86 5.0 14.0 0.00 0.00 0.00 23 1013.5
20260831201605 100 119 1.0 14.0 0.00 0.00 0.00 26 1013.6
20260831200103 99 140 4.0 9.0 0.00 0.00 0.00 26 1014.0
20260831194635 98 325 5.0 15.0 0.00 0.00 0.00 26 1014.2
20260831193101 97 72 7.0 14.0 0.00 0.00 0.00 28 1014.4
20260831191608 98 347 4.0 10.0 0.00 0.00 0.00 28 1014.4
20260831190122 97 110 4.0 9.0 0.00 0.00 0.00 29 1014.7
20260831184614 97 149 3.0 10.0 0.00 0.00 0.00 28 1014.9
20260831183106 97 34 5.0 12.0 0.00 0.00 0.00 29 1015.2
20260831181603 97 0 1.0 8.0 0.00 0.00 0.00 30 1015.4
20260831174639 95 310 4.0 11.0 0.00 0.00 0.00 29 1015.6
20260831173105 95 315 3.0 10.0 0.00 0.00 0.00 29 1015.7
20260831171603 95 0 3.0 6.0 0.00 0.00 0.00 31 1015.9
20260831170059 94 99 3.0 7.0 0.00 0.00 0.00 31 1016.0
20260831164606 95 0 0.0 7.0 0.00 0.00 0.00 31 1016.1
20260831163107 94 98 3.0 5.0 0.00 0.00 0.00 32 1016.1
20260831161605 94 0 0.0 4.0 0.00 0.00 0.00 32 1016.1
20260831160107 94 277 0.0 3.0 0.00 0.00 0.00 34 1016.1
20260831154627 91 0 0.0 3.0 0.00 0.00 0.00 37 1015.9
20260831153118 91 0 0.0 7.0 0.00 0.00 0.00 36 1016.0
20260831151607 90 0 0.0 6.0 0.00 0.00 0.00 37 1016.2
20260831150105 88 0 0.0 0.0 0.00 0.00 0.00 40 1016.0
20260831144607 87 0 0.0 0.0 0.00 0.00 0.00 40 1016.0
20260831143102 85 0 0.0 0.0 0.00 0.00 0.00 43 1015.9
20260831141605 82 0 0.0 0.0 0.00 0.00 0.00 47 1016.1
20260831134612 79 0 0.0 0.0 0.00 0.00 0.00 50 1016.0
20260831133109 78 0 0.0 0.0 0.00 0.00 0.00 52 1015.7
20260831131603 76 0 0.0 2.0 0.00 0.00 0.00 53 1015.6
20260831130105 76 281 2.0 4.0 0.00 0.00 0.00 54 1015.5
20260831124606 75 284 1.0 3.0 0.00 0.00 0.00 54 1015.2
20260831123105 75 0 0.0 2.0 0.00 0.00 0.00 56 1015.0
20260831121632 75 0 0.0 0.0 0.00 0.00 0.00 55 1014.8
20260831120108 76 219 2.0 7.0 0.00 0.00 0.00 55 1014.5
20260831114606 76 135 3.0 8.0 0.00 0.00 0.00 54 1014.3
20260831113110 77 137 6.0 10.0 0.00 0.00 0.00 54 1014.2
20260831111604 76 146 6.0 10.0 0.00 0.00 0.00 54 1014.4
20260831110104 76 136 6.0 9.0 0.00 0.00 0.00 54 1014.3
20260831104608 76 129 6.0 9.0 0.00 0.00 0.00 55 1014.4
20260831103111 76 124 6.0 8.0 0.00 0.00 0.00 55 1014.3
20260831101603 77 134 6.0 9.0 0.00 0.00 0.00 54 1014.2
20260831100105 77 130 7.0 9.0 0.00 0.00 0.00 54 1014.0
20260831094608 74 105 3.0 4.0 0.00 0.00 0.00 60 1014.1
20260831093155 75 81 1.0 3.0 0.00 0.00 0.00 59 1014.0
20260831091601 78 111 5.0 7.0 0.00 0.00 0.00 52 1013.9
20260831090104 80 126 5.0 8.0 0.00 0.00 0.00 50 1014.1
20260831084652 80 144 7.0 10.0 0.00 0.00 0.00 49 1014.1
20260831083108 80 117 7.0 13.0 0.00 0.00 0.00 49 1014.2
20260831081606 80 136 7.0 10.0 0.00 0.00 0.00 50 1014.2
20260831080124 80 117 8.0 13.0 0.00 0.00 0.00 49 1014.1
20260831074603 81 124 9.0 11.0 0.00 0.00 0.00 49 1014.2
20260831073108 82 129 8.0 12.0 0.00 0.00 0.00 48 1014.3
20260831071612 82 126 7.0 10.0 0.00 0.00 0.00 47 1014.3
20260831070107 83 140 9.0 12.0 0.00 0.00 0.00 46 1014.3
20260831064636 83 124 8.0 11.0 0.00 0.00 0.00 46 1014.4
20260831063114 84 159 8.0 12.0 0.00 0.00 0.00 45 1014.4
20260831061605 84 132 10.0 13.0 0.00 0.00 0.00 44 1014.7
20260831060120 85 132 8.0 13.0 0.00 0.00 0.00 44 1014.7
20260831054608 85 128 10.0 16.0 0.00 0.00 0.00 43 1014.5
20260831053106 86 131 12.0 16.0 0.00 0.00 0.00 43 1014.6
20260831051605 86 138 11.0 19.0 0.00 0.00 0.00 42 1014.5
20260831050115 86 141 12.0 21.0 0.00 0.00 0.00 42 1014.8
20260831044609 87 146 15.0 22.0 0.00 0.00 0.00 41 1014.7